[[{"header":{"parameterUnit":"m.s-1","parameterCategory":1,"la1":30.2991,"la2":30.254,"lo1":-89.0895,"lo2":-89.0444,"dy":0.0017,"dx":0.0017,"nx":28,"ny":28,"refTime":"2024-05-04T09:00:00:Z","depth":0,"parameterNumber":2,"parameterNumberName":"U-component_of_WINDS"},"data":[0,0,0,0,0,0,0,0,0,0,0,0,0,0,0,0,0,0,0,0,0,0,0,0,0,0,0,0,0,0,0,0,0,0,0,0,0,0,0,0,0,0,0,0,0,0,0,0,0,0,0,0,0,0,0,0,0,0,-2.1146,-2.1146,0,-2.115,-2.115,-2.115,-2.1111,-2.1109,-2.1108,-2.1107,-2.1111,-2.1112,-2.1113,0,0,0,0,0,0,0,0,0,0,0,0,0,-2.1104,-2.1105,-2.1146,-2.1146,-2.1146,-2.115,-2.115,-2.115,-2.1111,-2.1109,-2.1108,-2.1107,-2.111,-2.1112,-2.1113,0,0,0,0,0,0,0,0,0,0,0,0,0,-2.1117,-2.1106,-2.1146,-2.1127,-2.1125,-2.115,-2.115,-2.115,-2.1111,-2.1109,-2.1108,-2.1106,-2.111,-2.1112,-2.1113,-2.1156,0,0,-2.1118,-2.1119,0,0,0,0,0,0,0,0,-2.1116,-2.1118,-2.113,-2.1128,-2.1126,-2.1128,-2.1136,-2.1152,-2.1111,-2.1116,-2.1107,-2.1105,-2.1118,-2.1119,-2.1123,-2.1156,-2.1156,-2.1118,-2.1119,-2.112,-2.1121,0,0,0,0,0,0,0,-2.1115,-2.1118,-2.1147,-2.113,-2.1128,-2.1118,-2.1118,-2.1139,-2.1126,-2.1116,-2.1113,-2.1114,-2.1117,-2.1122,-2.1123,-2.1156,-2.1118,-2.112,-2.1121,-2.1122,-2.1225,-2.1227,0,0,0,0,0,0,-2.1117,-2.1117,-2.1147,-2.1147,-2.1117,-2.112,-2.112,-2.1129,-2.1126,-2.1124,-2.1115,-2.1112,-2.112,-2.1121,-2.1123,-2.1172,-2.112,-2.1122,-2.1123,-2.1223,-2.1226,-2.1227,0,0,0,0,0,0,-2.1116,-2.112,-2.1147,-2.1132,-2.1134,-2.1123,-2.1133,-2.113,-2.1135,-2.1126,-2.1123,-2.1123,-2.1118,-2.112,-2.1148,-2.1172,-2.1122,-2.1124,-2.1221,-2.1224,-2.1227,-2.1272,0,0,0,0,0,0,-2.1115,-2.112,-2.1136,-2.1132,-2.1135,-2.1172,-2.1135,-2.1131,-2.1138,-2.1134,-2.1132,-2.113,-2.1117,-2.1146,-2.115,-2.1173,-2.1125,-2.1219,-2.1223,-2.1226,-2.1268,-2.1276,-2.1282,0,0,0,0,0,-2.1114,-2.1148,-2.1137,-2.1141,-2.1155,-2.1174,-2.1175,-2.116,-2.114,-2.1156,-2.115,-2.113,-2.1169,-2.1149,-2.1153,-2.1177,-2.1218,-2.1222,-2.1225,-2.1265,-2.1274,-2.1282,0,0,0,0,0,0,-2.1154,-2.1147,-2.1135,-2.1169,-2.1172,-2.1167,-2.1187,-2.1171,-2.1179,-2.1175,-2.1156,-2.1156,-2.1187,-2.1185,-2.1163,-2.1219,-2.119,-2.1195,-2.1218,-2.1227,-2.1234,-2.1233,-2.1127,0,0,0,0,0,-2.1168,-2.1183,-2.1176,-2.1208,-2.121,-2.1198,-2.1206,-2.1194,-2.1197,-2.1198,-2.1194,-2.1197,-2.121,-2.1219,-2.123,-2.1269,-2.1267,-2.1287,-2.1294,-2.13,-2.1304,-2.1324,-2.1333,-2.124,-2.124,-2.124,0,0,-2.1194,-2.1193,-2.1204,-2.1216,-2.1217,-2.1234,-2.12,-2.1219,-2.1231,-2.12,-2.1226,-2.1224,-2.1226,-2.1259,-2.1274,-2.1259,-2.133,-2.1305,-2.131,-2.1311,-2.1329,-2.1338,-2.1346,-2.1243,-2.1243,-2.1242,0,0,-2.1251,-2.1252,-2.1278,-2.128,-2.1283,-2.1275,-2.1281,-2.1279,-2.1276,-2.1302,-2.1279,-2.1294,-2.1317,-2.1319,-2.1324,-2.1384,-2.1365,-2.1388,-2.1424,-2.1444,-2.1451,-2.1458,-2.1478,-2.1486,-2.1393,-2.1393,-2.1393,0,-2.1284,-2.1309,-2.1293,-2.1314,-2.132,-2.1294,-2.132,-2.1323,-2.1329,-2.1334,-2.1317,-2.1346,-2.1346,-2.1379,-2.1394,-2.1399,-2.1405,-2.1387,-2.1452,-2.1458,-2.1463,-2.1483,-2.1491,-2.1395,-2.1395,-2.1395,-2.1395,0,-2.1349,-2.1366,-2.1387,-2.1394,-2.1402,-2.1426,-2.1414,-2.1424,-2.1413,-2.1407,-2.1433,-2.1433,-2.1443,-2.1451,-2.1439,-2.1483,-2.1474,-2.1455,-2.1425,-2.1475,-2.1493,-2.1501,-2.1399,-2.1398,-2.1397,-2.1397,0,0,-2.1429,-2.1429,-2.1436,-2.1439,-2.1441,-2.1454,-2.1477,-2.1488,-2.1497,-2.1503,-2.1521,-2.1542,-2.1525,-2.153,-2.1518,-2.1536,-2.1583,-2.1515,-2.1515,-2.1527,-2.1631,-2.1644,-2.1653,-2.1572,-2.1573,-2.1574,-2.163,0,-2.1485,-2.1523,-2.151,-2.1549,-2.1565,-2.1541,-2.1561,-2.1564,-2.156,-2.1573,-2.1568,-2.1583,-2.1559,-2.1562,-2.1579,-2.1574,-2.1603,-2.157,-2.1588,-2.1588,-2.1586,-2.1662,-2.1676,-2.1729,-2.1637,-2.1638,-2.1639,0,-2.1553,-2.1562,-2.1603,-2.1602,-2.1608,-2.1626,-2.1636,-2.1649,-2.1652,-2.1648,-2.1654,-2.1639,-2.1661,-2.1633,-2.1663,-2.1641,-2.1647,-2.1646,-2.1648,-2.1648,-2.1616,-2.1663,-2.1745,-2.1753,-2.165,-2.1649,-2.1649,0,-2.1607,-2.163,-2.1657,-2.166,-2.166,-2.1673,-2.1674,-2.1676,-2.1684,-2.1692,-2.1697,-2.1708,-2.1714,-2.1723,-2.1712,-2.1692,-2.1743,-2.1714,-2.174,-2.174,-2.175,-2.1749,-2.1833,-2.1757,-2.1757,-2.1757,-2.1757,0,-2.1669,-2.1695,-2.1681,-2.1697,-2.1725,-2.1711,-2.1739,-2.1737,-2.174,-2.1755,-2.1736,-2.1752,-2.1736,-2.175,-2.1742,-2.1768,-2.1771,-2.1768,-2.1765,-2.1769,-2.1769,-2.1772,-2.1767,-2.1759,-2.1758,-2.1758,-2.1758,0,-2.1733,-2.1725,-2.1753,-2.1752,-2.1752,-2.1773,-2.1771,-2.1786,-2.1781,-2.1802,-2.1806,-2.1798,-2.1813,-2.1803,-2.1819,-2.1813,-2.1847,-2.184,-2.1846,-2.1843,-2.1869,-2.1867,-2.1957,-2.1968,-2.1886,-2.1886,-2.1887,0,-2.1773,-2.1792,-2.1793,-2.1802,-2.1804,-2.182,-2.1828,-2.1815,-2.1824,-2.183,-2.1845,-2.1859,-2.1869,-2.1895,-2.189,-2.1902,-2.1894,-2.1925,-2.1896,-2.1899,-2.1894,-2.1892,-2.1894,-2.1931,-2.1932,-2.1932,-2.1933,0,-2.1843,-2.1839,-2.1851,-2.1862,-2.1873,-2.1881,-2.1887,-2.1896,-2.1884,-2.1895,-2.1911,-2.1919,-2.1935,-2.1949,-2.1959,-2.196,-2.1944,-2.1943,-2.1949,-2.1952,-2.1955,-2.1953,-2.186,-2.194,-2.1939,-2.1939,-2.1939,-2.1938,-2.1896,-2.1912,-2.1915,-2.193,-2.1933,-2.194,-2.1955,-2.1952,-2.1965,-2.1977,-2.1969,-2.1988,-2.1991,-2.2004,-2.2007,-2.2021,-2.2008,-2.2018,-2.202,-2.2022,-2.2025,-2.1954,-2.2023,-2.2023,-2.2022,-2.2022,-2.2022,0,-2.1964,-2.1966,-2.198,-2.199,-2.2001,-2.1987,-2.1994,-2.2004,-2.2021,-2.2026,-2.2037,-2.2055,-2.2069,-2.2066,-2.2078,-2.209,-2.2084,-2.2094,-2.2092,-2.2093,-2.2036,-2.2029,-2.2099,-2.2099,-2.2099,-2.2099,-2.2099,-2.2099,-2.2002,-2.2028,-2.2024,-2.2052,-2.2053,-2.2071,-2.2076,-2.2083,-2.2087,-2.2108,-2.212,-2.2118,-2.212,-2.2132,-2.2144,-2.2143,-2.2148,-2.2161,-2.2157,-2.2104,-2.2097,-2.2089,-2.2082,-2.2162,-2.2163,-2.2212,-2.2212,-2.2213]},{"header":{"parameterUnit":"m.s-1","parameterCategory":1,"la1":30.2991,"la2":30.254,"lo1":-89.0895,"lo2":-89.0444,"dy":0.0017,"dx":0.0017,"nx":28,"ny":28,"refTime":"2024-05-04T09:00:00:Z","depth":0,"parameterNumber":3,"parameterNumberName":"V-component_of_WINDS"},"data":[0,0,0,0,0,0,0,0,0,0,0,0,0,0,0,0,0,0,0,0,0,0,0,0,0,0,0,0,0,0,0,0,0,0,0,0,0,0,0,0,0,0,0,0,0,0,0,0,0,0,0,0,0,0,0,0,0,0,2.4336,2.4337,0,2.4422,2.4423,2.4424,2.4459,2.4459,2.4459,2.4459,2.4542,2.4545,2.4547,0,0,0,0,0,0,0,0,0,0,0,0,0,2.4201,2.4203,2.4336,2.4337,2.4338,2.4422,2.4423,2.4424,2.4459,2.4459,2.4459,2.4459,2.4542,2.4544,2.4547,0,0,0,0,0,0,0,0,0,0,0,0,0,2.427,2.4204,2.4336,2.4366,2.437,2.4421,2.4423,2.4424,2.4459,2.4459,2.4459,2.4459,2.4541,2.4544,2.4548,2.4575,0,0,2.4559,2.456,0,0,0,0,0,0,0,0,2.4266,2.4275,2.4361,2.4364,2.4368,2.443,2.4406,2.4475,2.4459,2.4425,2.4459,2.4459,2.4505,2.4511,2.4528,2.4578,2.4582,2.4559,2.4561,2.4563,2.4564,0,0,0,0,0,0,0,2.4261,2.4271,2.437,2.4362,2.4366,2.4374,2.4384,2.4419,2.4465,2.4428,2.4431,2.4441,2.4507,2.4524,2.453,2.4583,2.4559,2.4562,2.4564,2.4566,2.4662,2.4662,0,0,0,0,0,0,2.4252,2.4267,2.4367,2.4373,2.4316,2.4377,2.4388,2.441,2.4465,2.4473,2.4441,2.4442,2.4518,2.4526,2.4533,2.457,2.4563,2.4566,2.4568,2.4662,2.4662,2.4663,0,0,0,0,0,0,2.4249,2.426,2.4364,2.4321,2.4335,2.438,2.4404,2.4412,2.443,2.4475,2.4483,2.4451,2.4518,2.4528,2.4565,2.4573,2.4567,2.4571,2.4661,2.4662,2.4662,2.4642,0,0,0,0,0,0,2.4245,2.4259,2.427,2.4321,2.4337,2.4395,2.4405,2.4414,2.4436,2.4439,2.4486,2.4493,2.4519,2.4559,2.4568,2.4578,2.4573,2.4661,2.4661,2.4662,2.4642,2.4642,2.4642,0,0,0,0,0,2.424,2.426,2.4271,2.4283,2.4352,2.4395,2.4404,2.4434,2.4437,2.4448,2.4477,2.4492,2.457,2.4563,2.4573,2.4584,2.466,2.4661,2.4662,2.4642,2.4642,2.4642,0,0,0,0,0,0,2.4207,2.4267,2.428,2.4317,2.4351,2.4401,2.4416,2.4433,2.4466,2.4466,2.4501,2.4512,2.4546,2.4568,2.4558,2.4614,2.4616,2.462,2.4598,2.4598,2.4598,2.4592,2.4576,0,0,0,0,0,2.4205,2.4236,2.4286,2.4314,2.4331,2.4371,2.439,2.4411,2.4447,2.4461,2.4493,2.4526,2.4559,2.4579,2.4612,2.4645,2.4657,2.4658,2.4658,2.4657,2.466,2.4681,2.4682,2.4666,2.4666,2.4666,0,0,2.4199,2.4236,2.4253,2.4308,2.4337,2.4368,2.4382,2.4414,2.4437,2.4466,2.4503,2.4528,2.4567,2.4603,2.462,2.4623,2.4667,2.4658,2.4658,2.4661,2.4682,2.4683,2.4685,2.4666,2.4666,2.4666,0,0,2.4206,2.4236,2.4264,2.4293,2.4337,2.4364,2.437,2.4419,2.4437,2.4475,2.4498,2.4525,2.458,2.4608,2.4629,2.4648,2.4663,2.4657,2.4656,2.4676,2.4677,2.4678,2.4686,2.4688,2.4659,2.4659,2.4659,0,2.4193,2.4242,2.4275,2.4307,2.4331,2.436,2.4388,2.4414,2.4466,2.4481,2.4484,2.4555,2.4583,2.4627,2.4631,2.4647,2.4656,2.4652,2.4674,2.4676,2.4678,2.4685,2.4688,2.4658,2.4658,2.4658,2.4658,0,2.4225,2.4258,2.4275,2.4327,2.4352,2.4382,2.4419,2.4441,2.446,2.4486,2.4525,2.4561,2.4601,2.4613,2.463,2.4659,2.466,2.4668,2.4671,2.4678,2.4686,2.4689,2.4657,2.4657,2.4657,2.4658,0,0,2.4212,2.4284,2.4289,2.4314,2.4365,2.4392,2.4422,2.4464,2.4483,2.4517,2.4544,2.4591,2.4599,2.4623,2.4644,2.4662,2.4676,2.4668,2.4669,2.4669,2.4711,2.4706,2.4709,2.4686,2.4687,2.4687,2.4708,0,2.4226,2.4285,2.4316,2.4361,2.4393,2.4422,2.4449,2.4483,2.4508,2.4538,2.4566,2.4599,2.4607,2.4622,2.4641,2.467,2.4685,2.4669,2.4711,2.4712,2.4702,2.4713,2.4706,2.4725,2.4712,2.4712,2.4712,0,2.425,2.4287,2.4336,2.4386,2.44,2.4424,2.4466,2.4494,2.4533,2.4551,2.4579,2.46,2.4633,2.4634,2.4681,2.467,2.4689,2.4706,2.4707,2.4713,2.4713,2.4719,2.4731,2.4734,2.4717,2.4717,2.4717,0,2.4238,2.4299,2.4337,2.4357,2.4415,2.4432,2.4457,2.4496,2.452,2.4555,2.4571,2.4609,2.4631,2.466,2.4691,2.4688,2.4734,2.4738,2.475,2.4749,2.4759,2.4758,2.4774,2.4769,2.4769,2.4769,2.4769,0,2.4251,2.4279,2.4333,2.4355,2.4389,2.4425,2.4456,2.4483,2.4518,2.4547,2.4573,2.4599,2.4638,2.4669,2.4693,2.4728,2.4737,2.4752,2.4758,2.475,2.4749,2.4764,2.4764,2.477,2.477,2.477,2.477,0,2.4242,2.4279,2.4322,2.4375,2.4389,2.4411,2.4456,2.4479,2.4507,2.4543,2.4553,2.4596,2.4633,2.4667,2.4716,2.4733,2.4769,2.4776,2.4756,2.476,2.4771,2.477,2.4798,2.4804,2.4794,2.4794,2.4794,0,2.4248,2.4272,2.4328,2.435,2.4375,2.4409,2.4434,2.4471,2.4495,2.4543,2.4561,2.4601,2.4635,2.4693,2.4728,2.4766,2.4775,2.4783,2.4781,2.4773,2.4777,2.4775,2.4778,2.4782,2.4782,2.4782,2.4782,0,2.4256,2.4273,2.4309,2.4352,2.4381,2.4416,2.4451,2.4467,2.451,2.4537,2.4577,2.4603,2.4655,2.4694,2.4737,2.4761,2.4779,2.4783,2.4788,2.478,2.4768,2.4776,2.4757,2.4782,2.4782,2.4782,2.4782,2.4782,2.4256,2.4279,2.4322,2.4362,2.4393,2.4426,2.4451,2.4482,2.4517,2.4563,2.4582,2.4623,2.4663,2.4722,2.4747,2.4779,2.4782,2.4789,2.4791,2.4792,2.4791,2.4763,2.4786,2.4786,2.4786,2.4786,2.4786,0,2.4266,2.4296,2.4332,2.4382,2.4413,2.4428,2.4469,2.4493,2.453,2.4566,2.46,2.4646,2.4685,2.4723,2.4764,2.4783,2.4792,2.4792,2.4791,2.4797,2.4785,2.4778,2.4784,2.4784,2.4784,2.4784,2.4784,2.4784,2.4274,2.4314,2.4337,2.4393,2.4422,2.4464,2.4486,2.4517,2.4546,2.4598,2.4631,2.4656,2.4694,2.4738,2.4774,2.4785,2.4799,2.4797,2.4809,2.4798,2.4798,2.4797,2.479,2.4799,2.48,2.4819,2.4819,2.4819]}]]